Milton, FL

10:04 PM CST on December 08, 2016 (GMT -0600)
Whiting Field Naval Air Station (North)

Weather History for KNSE - July, 2014

Change the Weather History Date:

Thursday, July 3, 2014

  Actual Average Record
Temperature  
Mean Temperature 80 °F -  
Max Temperature 91 °F 86 °F 99 °F (2012)
Min Temperature 71 °F 69 °F 69 °F (1996)
Cooling Degree Days 16    
Growing Degree Days 30 (Base 50)    
Moisture  
Dew Point 67 °F    
Average Humidity 68    
Maximum Humidity 87    
Minimum Humidity 48    
Precipitation  
Precipitation 0.00 in - - ()
Sea Level Pressure  
Sea Level Pressure 29.99 in    
Wind  
Wind Speed 4 mph (NNW)    
Max Wind Speed 10 mph    
Max Gust Speed 16 mph    
Visibility 10 miles    
Events      
Averages and records for this station are not official NWS values.
T = Trace of Precipitation, MM = Missing Value Source: NWS Daily Summary

Daily Weather History Graph

Daily Weather History Graph

Search for Another Location

Airport or City:

Trip Planner

Search our weather history database for the weather conditions in past years. The results will help you decide how hot, cold, wet, or windy it might be!

Date:

Astronomy

Jul. 03, 2014 Rise Set
Actual Time 5:49 AM CDT 7:54 PM CDT
Civil Twilight 5:22 AM CDT 8:22 PM CDT
Nautical Twilight 4:48 AM CDT 8:56 PM CDT
Astronomical Twilight 4:12 AM CDT 9:31 PM CDT
Moon 11:23 AM CDT (7/3) 11:43 PM CDT (7/3)
Length of Visible Light 15h 00m
Length of Day
14h 05m
Waxing Crescent, 33% of the Moon is Illuminated
Jul 3
Waxing Crescent
Jul 5
First Quarter
Jul 12
Full
Jul 18
Last Quarter
Jul 26
New

Hourly Weather History & Observations

Time (CDT) Temp. Heat Index Dew Point Humidity Pressure Visibility Wind Dir Wind Speed Gust Speed Precip Events Conditions
12:56 AM 77.0 °F - 64.9 °F 66% 29.94 in 10.0 mi Calm Calm - N/A   Clear
1:56 AM 75.0 °F - 66.0 °F 73% 29.93 in 10.0 mi NNW 4.6 mph - N/A   Clear
2:56 AM 73.0 °F - 66.0 °F 79% 29.93 in 10.0 mi NNW 4.6 mph - N/A   Clear
3:56 AM 72.0 °F - 66.0 °F 81% 29.93 in 10.0 mi NW 6.9 mph - N/A   Clear
4:56 AM 71.1 °F - 66.0 °F 84% 29.94 in 10.0 mi NNW 4.6 mph - N/A   Clear
5:40 AM 71.1 °F - 66.0 °F 84% 29.99 in 10.0 mi North 4.6 mph - N/A   Partly Cloudy
5:56 AM 71.1 °F - 66.0 °F 84% 29.96 in 10.0 mi NNW 6.9 mph - N/A   Mostly Cloudy
6:56 AM 71.1 °F - 66.9 °F 87% 29.98 in 10.0 mi Calm Calm - N/A   Mostly Cloudy
7:56 AM 73.9 °F - 66.9 °F 79% 30.00 in 10.0 mi North 5.8 mph - N/A   Mostly Cloudy
8:56 AM 77.0 °F - 66.9 °F 71% 30.02 in 10.0 mi Variable 3.5 mph - N/A   Mostly Cloudy
9:56 AM 80.1 °F 82.1 °F 66.0 °F 62% 30.02 in 10.0 mi NNE 6.9 mph - N/A   Mostly Cloudy
10:56 AM 82.0 °F 84.5 °F 66.9 °F 60% 30.02 in 10.0 mi North 6.9 mph - N/A   Mostly Cloudy
11:56 AM 84.9 °F 88.8 °F 69.1 °F 59% 30.02 in 10.0 mi NW 5.8 mph - N/A   Mostly Cloudy
12:56 PM 84.0 °F 87.8 °F 69.1 °F 61% 30.01 in 10.0 mi NW 6.9 mph - N/A   Mostly Cloudy
1:56 PM 88.0 °F 93.8 °F 71.1 °F 57% 30.00 in 10.0 mi NNW 10.4 mph 16.1 mph N/A   Mostly Cloudy
2:56 PM 90.0 °F 93.6 °F 68.0 °F 48% 30.00 in 10.0 mi NNW 8.1 mph - N/A   Mostly Cloudy
3:56 PM 88.0 °F 91.4 °F 68.0 °F 51% 29.99 in 10.0 mi NW 9.2 mph - N/A   Mostly Cloudy
4:56 PM 89.1 °F 92.9 °F 68.0 °F 50% 29.96 in 10.0 mi NW 8.1 mph - N/A   Mostly Cloudy
5:56 PM 86.0 °F 89.4 °F 68.0 °F 55% 29.96 in 10.0 mi NW 6.9 mph - N/A   Mostly Cloudy
6:56 PM 82.9 °F 85.4 °F 66.9 °F 58% 29.97 in 10.0 mi NW 4.6 mph - N/A   Mostly Cloudy
7:56 PM 78.1 °F - 66.9 °F 68% 29.99 in 10.0 mi Calm Calm - N/A   Mostly Cloudy
8:56 PM 75.9 °F - 66.9 °F 74% 30.01 in 10.0 mi Calm Calm - N/A   Mostly Cloudy
9:56 PM 77.0 °F - 64.9 °F 66% 30.02 in 10.0 mi North 3.5 mph - N/A   Mostly Cloudy
10:45 PM 75.9 °F - 64.9 °F 69% 30.07 in 10.0 mi NNW 3.5 mph - N/A   Scattered Clouds
10:56 PM 75.9 °F - 64.9 °F 69% 30.03 in 10.0 mi North 4.6 mph - N/A   Clear
11:56 PM 75.0 °F - 64.9 °F 71% 30.04 in 10.0 mi North 4.6 mph - N/A   Clear